When you browse on this site, cookies collect data to enhance your experience and personalize the content and advertising you see.
Visit our Privacy Policy to learn more. By continuing to use the site, you agree to this use of cookies and data.
  • In Switzerland
  • List of Countries
  • For 7 days
  • Water Temperature
  • Weather Map
  • Weather Widgets
  • user-avatar
    Login

    Hourly Weather Szombathely

    Today, 3 April, Friday

    Time Temperature Precipitation Wind Pressure Humidity
    00:00 +2°C° 0 mm 2 mps 740 mmHg 74%
    01:00 +2°C° 0 mm 2 mps 740 mmHg 75%
    02:00 +2°C° 0 mm 2 mps 740 mmHg 74%
    03:00 +1°C° 0 mm 2 mps 739 mmHg 73%
    04:00 +1°C° 0 mm 2 mps 739 mmHg 72%
    05:00 +2°C° 0 mm 2 mps 740 mmHg 67%
    06:00 +4°C° 0 mm 1 mps 740 mmHg 63%
    07:00 +5°C° 0 mm 1 mps 740 mmHg 58%
    08:00 +8°C° 0 mm 1 mps 741 mmHg 52%
    09:00 +9°C° 0 mm 2 mps 741 mmHg 47%
    10:00 +13°C° 0 mm 2 mps 741 mmHg 42%
    11:00 +14°C° 0 mm 2 mps 741 mmHg 40%
    12:00 +15°C° 0 mm 2 mps 741 mmHg 39%
    13:00 +16°C° 0 mm 3 mps 741 mmHg 38%
    14:00 +15°C° 0 mm 2 mps 741 mmHg 40%
    15:00 +15°C° 0 mm 2 mps 741 mmHg 41%
    16:00 +15°C° 0 mm 2 mps 741 mmHg 42%
    17:00 +13°C° 0 mm 2 mps 741 mmHg 48%
    18:00 +12°C° 0 mm 1 mps 742 mmHg 54%
    19:00 +10°C° 0 mm 1 mps 742 mmHg 60%
    20:00 +10°C° 0 mm 1 mps 743 mmHg 62%
    21:00 +9°C° 0 mm 1 mps 744 mmHg 64%
    22:00 +9°C° 0 mm 1 mps 744 mmHg 66%
    23:00 +8°C° 0 mm 1 mps 745 mmHg 69%

    Tomorrow, 4 April, Saturday

    Time Temperature Precipitation Wind Pressure Humidity
    00:00 +8°C° 0 mm 1 mps 745 mmHg 72%
    01:00 +7°C° 0 mm 1 mps 746 mmHg 74%
    02:00 +7°C° 0 mm 1 mps 746 mmHg 77%
    03:00 +6°C° 0 mm 1 mps 746 mmHg 79%
    04:00 +6°C° 0 mm 1 mps 746 mmHg 81%
    05:00 +6°C° 0 mm 2 mps 746 mmHg 79%
    06:00 +6°C° 0 mm 2 mps 747 mmHg 77%
    07:00 +7°C° 0 mm 2 mps 747 mmHg 76%
    08:00 +9°C° 0 mm 2 mps 748 mmHg 69%
    09:00 +10°C° 0 mm 3 mps 748 mmHg 61%
    10:00 +12°C° 0 mm 4 mps 748 mmHg 54%
    11:00 +13°C° 0 mm 4 mps 748 mmHg 52%
    12:00 +13°C° 0 mm 4 mps 748 mmHg 50%
    13:00 +14°C° 0 mm 4 mps 748 mmHg 47%
    14:00 +13°C° 0 mm 4 mps 748 mmHg 48%
    15:00 +13°C° 0 mm 4 mps 748 mmHg 48%
    16:00 +13°C° 0 mm 5 mps 748 mmHg 49%
    17:00 +12°C° 0 mm 4 mps 748 mmHg 54%
    18:00 +10°C° 0 mm 3 mps 749 mmHg 60%
    19:00 +8°C° 0 mm 3 mps 749 mmHg 66%
    20:00 +8°C° 0 mm 3 mps 750 mmHg 67%
    21:00 +7°C° 0 mm 2 mps 750 mmHg 69%
    22:00 +6°C° 0 mm 2 mps 751 mmHg 70%
    23:00 +6°C° 0 mm 2 mps 751 mmHg 71%

    Day after tomorrow, 5 April, Sunday

    Time Temperature Precipitation Wind Pressure Humidity
    00:00 +5°C° 0 mm 2 mps 751 mmHg 71%
    01:00 +5°C° 0 mm 2 mps 752 mmHg 71%
    02:00 +4°C° 0 mm 2 mps 752 mmHg 72%
    03:00 +4°C° 0 mm 2 mps 752 mmHg 73%
    04:00 +5°C° 0 mm 1 mps 752 mmHg 74%
    05:00 +5°C° 0 mm 1 mps 752 mmHg 71%
    06:00 +6°C° 0 mm 1 mps 753 mmHg 69%
    07:00 +7°C° 0 mm 1 mps 753 mmHg 67%
    08:00 +9°C° 0 mm 1 mps 753 mmHg 59%
    09:00 +9°C° 0 mm 2 mps 753 mmHg 52%
    10:00 +12°C° 0 mm 2 mps 753 mmHg 44%
    11:00 +12°C° 0 mm 3 mps 753 mmHg 42%
    12:00 +13°C° 0 mm 3 mps 753 mmHg 40%
    13:00 +14°C° 0 mm 3 mps 752 mmHg 38%
    14:00 +14°C° 0 mm 3 mps 752 mmHg 37%
    15:00 +16°C° 0 mm 3 mps 752 mmHg 37%
    16:00 +16°C° 0 mm 3 mps 751 mmHg 36%
    17:00 +14°C° 0 mm 2 mps 751 mmHg 43%
    18:00 +12°C° 0 mm 2 mps 752 mmHg 51%
    19:00 +9°C° 0 mm 2 mps 752 mmHg 59%
    20:00 +9°C° 0 mm 1 mps 752 mmHg 63%
    21:00 +9°C° 0 mm 1 mps 753 mmHg 68%
    22:00 +8°C° 0 mm 1 mps 753 mmHg 72%
    23:00 +8°C° 0 mm 1 mps 753 mmHg 76%

    6 April, Monday

    Time Temperature Precipitation Wind Pressure Humidity
    00:00 +7°C° 0 mm 1 mps 753 mmHg 79%
    01:00 +7°C° 0 mm 1 mps 753 mmHg 82%
    02:00 +7°C° 0 mm 1 mps 753 mmHg 84%
    03:00 +6°C° 0 mm 1 mps 753 mmHg 85%
    04:00 +5°C° 0 mm 2 mps 753 mmHg 87%
    05:00 +6°C° 0 mm 2 mps 753 mmHg 82%
    06:00 +7°C° 0 mm 3 mps 754 mmHg 77%
    07:00 +7°C° 0 mm 4 mps 754 mmHg 72%
    08:00 +9°C° 0 mm 5 mps 754 mmHg 62%
    09:00 +10°C° 0 mm 5 mps 754 mmHg 51%
    10:00 +13°C° 0 mm 6 mps 754 mmHg 40%
    11:00 +14°C° 0 mm 6 mps 754 mmHg 38%
    12:00 +14°C° 0 mm 7 mps 754 mmHg 36%
    13:00 +15°C° 0 mm 7 mps 754 mmHg 33%
    14:00 +15°C° 0 mm 7 mps 753 mmHg 33%
    15:00 +14°C° 0 mm 7 mps 753 mmHg 33%
    16:00 +14°C° 0 mm 6 mps 753 mmHg 33%
    17:00 +12°C° 0 mm 5 mps 753 mmHg 38%
    18:00 +10°C° 0 mm 4 mps 753 mmHg 42%
    19:00 +8°C° 0 mm 3 mps 753 mmHg 47%
    20:00 +7°C° 0 mm 3 mps 754 mmHg 47%
    21:00 +7°C° 0 mm 3 mps 754 mmHg 48%
    22:00 +6°C° 0 mm 2 mps 755 mmHg 49%
    23:00 +5°C° 0 mm 2 mps 755 mmHg 50%

    7 April, Tuesday

    Time Temperature Precipitation Wind Pressure Humidity
    00:00 +4°C° 0 mm 2 mps 754 mmHg 51%
    01:00 +5°C° 0 mm 1 mps 754 mmHg 51%
    02:00 +4°C° 0 mm 1 mps 755 mmHg 53%
    03:00 +4°C° 0 mm 1 mps 755 mmHg 54%
    04:00 +3°C° 0 mm 1 mps 755 mmHg 55%
    05:00 +4°C° 0 mm 1 mps 755 mmHg 54%
    06:00 +5°C° 0 mm 1 mps 755 mmHg 53%
    07:00 +6°C° 0 mm 1 mps 755 mmHg 52%
    08:00 +7°C° 0 mm 2 mps 755 mmHg 47%
    09:00 +9°C° 0 mm 2 mps 755 mmHg 42%
    10:00 +10°C° 0 mm 3 mps 756 mmHg 37%
    11:00 +12°C° 0 mm 3 mps 755 mmHg 34%
    12:00 +13°C° 0 mm 3 mps 755 mmHg 31%
    13:00 +14°C° 0 mm 3 mps 755 mmHg 28%
    14:00 +14°C° 0 mm 3 mps 755 mmHg 29%
    15:00 +14°C° 0 mm 3 mps 755 mmHg 30%
    16:00 +14°C° 0 mm 3 mps 755 mmHg 31%
    17:00 +13°C° 0 mm 2 mps 755 mmHg 38%
    18:00 +10°C° 0 mm 2 mps 755 mmHg 44%
    19:00 +8°C° 0 mm 2 mps 755 mmHg 50%
    20:00 +8°C° 0 mm 2 mps 755 mmHg 52%
    21:00 +7°C° 0 mm 2 mps 756 mmHg 55%
    22:00 +7°C° 0 mm 1 mps 756 mmHg 57%
    23:00 +7°C° 0 mm 1 mps 756 mmHg 58%

    8 April, Wednesday

    Time Temperature Precipitation Wind Pressure Humidity
    00:00 +6°C° 0 mm 1 mps 756 mmHg 58%
    01:00 +6°C° 0 mm 1 mps 756 mmHg 59%
    02:00 +6°C° 0 mm 1 mps 756 mmHg 59%
    03:00 +5°C° 0 mm 1 mps 756 mmHg 59%
    04:00 +5°C° 0 mm 1 mps 756 mmHg 60%
    05:00 +6°C° 0 mm 1 mps 756 mmHg 57%
    06:00 +7°C° 0 mm 1 mps 757 mmHg 55%
    07:00 +8°C° 0 mm 1 mps 757 mmHg 53%
    08:00 +11°C° 0 mm 1 mps 757 mmHg 47%
    09:00 +13°C° 0 mm 1 mps 756 mmHg 42%
    10:00 +15°C° 0 mm 1 mps 756 mmHg 36%
    11:00 +16°C° 0 mm 1 mps 756 mmHg 34%
    12:00 +16°C° 0 mm 1 mps 756 mmHg 32%
    13:00 +18°C° 0 mm 1 mps 755 mmHg 30%
    14:00 +17°C° 0 mm 2 mps 755 mmHg 31%
    15:00 +17°C° 0 mm 2 mps 754 mmHg 31%
    16:00 +17°C° 0 mm 2 mps 754 mmHg 32%
    17:00 +15°C° 0 mm 1 mps 754 mmHg 39%
    18:00 +13°C° 0 mm 1 mps 754 mmHg 45%
    19:00 +11°C° 0 mm 1 mps 753 mmHg 52%
    20:00 +10°C° 0 mm 1 mps 754 mmHg 53%
    21:00 +10°C° 0 mm 1 mps 754 mmHg 55%
    22:00 +8°C° 0 mm 0 mps 754 mmHg 57%
    23:00 +9°C° 0 mm 1 mps 754 mmHg 58%
    Show more